Regional Weather Roundup
Issued by NWS

Home | Current Version | Previous Version | Text Only | Print | Product List | Glossary On
Versions: 1 2 3 4 5 6 7 8 9 10 11 12 13 14 15 16 17 18 19 20 21 22 23 24 25 26 27 28
000
ASUS45 KBOI 231210
RWRID

IDAHO REGIONAL WEATHER ROUNDUP
NATIONAL WEATHER SERVICE BOISE ID
600 AM MDT WED AUG 23 2017

NOTE: "FAIR" INDICATES FEW OR NO CLOUDS BELOW 12000 FEET
WITH NO SIGNIFICANT WEATHER AND/OR OBSTRUCTIONS TO VISIBILITY

IDZ012-014-231300-
SOUTHWEST IDAHO


CITY           SKY/WX    TMP DP  RH WIND       PRES   REMARKS
BOISE          PTCLDY    69  41  36 SE13      30.00S
CALDWELL       PTCLDY    59  52  77 CALM      29.98S
MOUNTAIN HOME  MOCLDY    68  44  40 NE8       30.02R
$$

IDZ016-017-231300-
SOUTHCENTRAL IDAHO


CITY           SKY/WX    TMP DP  RH WIND       PRES   REMARKS
BURLEY         CLOUDY    66  51  58 NE3       30.10R
JEROME         CLOUDY    70  49  47 NE7       30.09S
TWIN FALLS     CLOUDY    66  52  60 SE7       30.11R
$$

IDZ019>023-231300-
SOUTHEAST IDAHO


CITY           SKY/WX    TMP DP  RH WIND       PRES   REMARKS
IDAHO FALLS    CLOUDY    49  45  86 N3        30.18R
POCATELLO      CLOUDY    61  50  67 SE5       30.15S
REXBURG        CLOUDY    51  39  63 NE7       30.19S
$$

IDZ006-010-011-018-031-032-231300-
CENTRAL IDAHO MOUNTAINS


CITY           SKY/WX    TMP DP  RH WIND       PRES   REMARKS
MCCALL         CLEAR     49  40  71 CALM      30.14S
HAILEY         MOCLDY    55  37  50 NW8       30.21S
STANLEY          N/A     40  31  70 SE3       30.29S
SALMON         CLEAR     47  37  68 CALM      30.15R
CHALLIS        CLEAR     54  37  52 N3        30.18F HAZE
$$

IDZ002-004-006-007-026-231300-
NORTHERN IDAHO


CITY           SKY/WX    TMP DP  RH WIND       PRES   REMARKS
LEWISTON       CLEAR     65  42  43 CALM      29.97R
LOWELL           N/A     56  48  74 CALM      30.05R
COEUR D`ALENE  CLEAR     64  49  57 SE6       30.00S
MULLAN PASS    CLEAR     59  34  39 NW3       30.19S
$$




USA.gov is the U.S. government's official web portal to all federal, state and local government web resources and services.